Torna al catalogo

COSMOS 877

AttivoMilitareLEO
NORAD 9594·PAYLOAD·🇷🇺 Russia

Lanciato Dec 7, 1976 da Plesetsk Cosmodrome

Loading…

Prossimi Passaggi (prossime 24 ore)

TLE

AggiornatoSource: Space-Track

Epoca: Sep 14, 2026, 10:25 UTC

1 09594U 76118G   26257.43459876  .00000011  00000-0  17323-3 0  9999
2 09594  74.0311 151.1085 0005608  76.1731  36.7350 12.51341253273418

Traccia COSMOS 877 in tempo reale con AllMySat

Download on the App Store